Probability
1 2 2 2 1 0 0 0 0 0 1 2 2 2 2 2 1 0 1 4 9 11 10 7 4 4 4 4 4 3 1 0 0 0 0 0 0 0 0 0 0 0 0
0 1 1 1 0 0 0 0 0 0 0 1 1 2 3 2 1 0 0 2 6 10 10 9 6 4 4 5 5 4 3 2 1 0 0 0 0 0 0 0 0 0 0
0 0 0 0 0 0 0 0 0 0 0 0 0 1 2 2 1 0 0 1 3 5 8 11 9 7 6 5 5 6 8 7 5 3 1 0 0 0 0 0 0 0 0
0 0 0 0 0 0 0 0 0 0 0 0 0 0 1 1 0 0 1 2 2 1 4 8 9 7 6 4 4 7 11 14 14 11 5 1 0 0 0 0 0 0 0
0 0 0 0 0 0 0 0 0 0 0 0 0 0 0 0 0 0 1 1 1 0 1 2 4 5 5 5 5 7 11 16 22 22 14 5 1 0 0 0 0 0 0
0 0 0 0 0 0 0 0 0 0 0 0 0 0 0 0 0 0 0 0 0 0 0 0 2 4 4 5 7 10 11 15 24 30 26 17 10 5 2 1 0 0 0
0 0 0 0 0 0 0 0 0 0 0 0 0 0 0 0 0 0 0 0 0 0 0 0 3 5 4 4 8 11 12 14 22 31 34 32 25 19 10 4 1 0 0
0 0 0 0 0 0 0 0 0 0 0 0 0 0 0 0 0 0 0 0 0 0 0 0 2 5 4 3 5 8 10 13 18 27 35 39 39 36 25 12 4 1 0
0 0 0 0 0 0 0 0 0 0 0 0 0 0 0 0 0 0 0 0 0 0 0 0 1 3 3 3 3 4 6 8 13 20 29 37 44 48 42 26 11 3 1
0 0 0 0 0 0 0 0 0 0 0 0 0 0 0 0 0 0 0 0 0 0 0 0 0 1 1 1 2 1 2 4 8 12 18 26 37 46 49 39 21 7 2
0 0 0 0 0 0 0 0 0 0 0 0 0 0 0 0 0 0 0 0 0 0 0 0 0 0 0 1 1 1 1 2 4 6 9 14 23 33 42 42 29 14 7
0 0 0 0 0 0 0 0 0 0 0 0 0 0 0 0 0 0 0 0 0 0 0 0 0 0 0 0 1 1 1 1 1 2 2 5 11 19 28 34 32 24 18
0 0 0 0 0 0 0 0 0 0 0 0 0 0 0 0 0 0 0 0 0 0 0 0 0 0 0 0 0 0 0 0 0 0 0 1 4 9 15 23 27 27 25
0 0 0 0 0 0 0 0 0 0 0 0 0 0 0 0 0 0 0 0 0 0 0 0 0 0 0 0 0 0 0 0 0 0 0 0 1 2 6 12 17 20 20
0 0 0 0 0 0 0 0 0 0 0 0 0 0 0 0 0 0 0 0 0 0 0 0 0 0 0 0 0 0 0 0 0 0 0 0 0 0 1 3 7 9 10
0 0 0 0 0 0 0 0 0 0 0 0 0 0 0 0 0 0 0 0 0 0 0 0 0 0 0 0 0 0 0 0 0 0 0 0 0 0 0 0 1 2 2
0 0 0 0 0 0 0 0 0 0 0 0 0 0 0 0 0 0 0 0 0 0 0 0 0 0 0 0 0 0 0 0 0 0 0 0 0 0 0 0 0 0 0
0 0 0 0 0 0 0 0 0 0 0 0 0 0 0 0 0 0 0 0 0 0 0 0 0 0 0 0 0 0 0 0 0 0 0 0 0 0 0 0 0 0 0
0 0 0 0 0 0 0 0 0 0 0 0 0 0 0 0 0 0 0 0 0 0 0 0 0 0 0 0 0 0 0 0 0 0 0 0 0 0 0 0 0 0 0
0 0 0 0 0 0 0 0 0 0 0 0 0 0 0 0 0 0 0 0 0 0 0 0 0 0 0 0 0 0 0 0 0 0 0 0 0 0 0 0 0 0 0
0 0 0 0 0 0 0 0 0 0 0 0 0 0 0 0 0 0 0 0 0 0 0 0 0 0 0 0 0 0 0 0 0 0 0 0 0 0 0 0 0 0 0
0 0 0 0 0 0 0 0 0 0 0 0 0 0 0 0 0 0 0 0 0 0 0 0 0 0 0 0 0 0 0 0 0 0 0 0 0 0 0 0 0 0 0
0 0 0 0 0 0 0 0 0 0 0 0 0 0 0 0 0 0 0 0 0 0 0 0 0 0 0 0 0 0 0 0 0 0 0 0 0 0 0 0 0 0 0
0 0 0 0 0 0 0 0 0 0 0 0 0 0 0 0 0 0 0 0 0 0 0 0 0 0 0 0 0 0 0 0 0 0 0 0 0 0 0 0 0 0 0
0 0 0 0 0 0 0 0 0 0 0 0 0 0 0 0 0 0 0 0 0 0 0 0 0 0 0 0 0 0 0 0 0 0 0 0 0 0 0 0 0 0 0
0 0 0 0 0 0 0 0 0 0 0 0 0 0 0 0 0 0 0 0 0 0 0 0 0 0 0 0 0 0 0 0 0 0 0 0 0 0 0 0 0 0 0
Wind_Speed
2 2 2 2 2 1 1 1 1 1 1 2 1 2 2 3 3 3 2 8 11 13 15 16 17 17 17 17 17 17 16 16 14 13 13 14 14 14 14 13 12 11 11
3 2 2 2 2 1 1 1 1 1 1 1 2 2 2 2 2 3 4 6 11 13 15 16 17 17 18 18 18 18 17 17 15 15 14 14 14 15 15 14 13 12 11
3 3 2 2 2 2 2 2 2 2 2 2 2 2 2 2 2 3 4 4 5 12 15 16 17 17 18 18 19 19 18 17 16 16 15 15 15 15 14 14 14 13 12
4 3 3 2 2 3 3 2 2 2 2 2 2 3 2 2 3 4 4 4 4 5 9 15 16 17 18 19 20 20 19 18 18 17 17 16 16 16 15 15 15 14 13
4 4 3 2 3 3 3 3 2 1 2 3 3 3 3 3 4 4 4 4 5 5 5 9 15 17 19 20 20 20 20 19 19 19 19 19 18 17 16 16 16 15 15
4 4 3 3 4 3 3 3 3 2 1 2 3 4 3 3 3 3 4 3 4 5 6 6 6 10 17 18 18 19 20 20 20 20 21 20 20 19 18 17 17 17 16
4 4 3 3 3 3 3 3 2 3 3 3 3 4 4 3 3 2 3 2 2 3 4 5 5 5 6 14 17 18 20 21 21 21 21 21 21 20 19 19 18 18 17
4 4 3 2 3 3 4 4 3 2 3 3 2 2 4 6 4 4 3 3 2 2 2 4 4 4 4 3 7 15 17 19 21 21 21 21 21 21 20 20 20 19 19
3 3 4 3 3 2 2 2 2 3 2 3 2 2 2 2 4 4 4 4 4 3 2 2 3 3 4 4 4 9 15 16 18 20 21 21 21 21 21 22 21 21 20
2 3 4 3 3 2 2 1 2 1 2 2 2 1 1 2 1 4 4 4 5 4 4 3 3 2 3 3 4 7 10 12 15 18 19 20 21 22 22 23 23 23 22
1 3 4 3 2 1 1 1 1 1 1 0 1 1 2 1 1 1 3 5 5 4 3 3 3 3 3 3 3 5 8 9 10 12 15 17 19 22 23 24 26 25 24
1 2 4 3 3 2 1 1 0 0 0 0 1 1 0 0 1 0 2 3 4 4 4 3 3 3 3 2 4 5 7 7 8 9 11 12 15 19 22 25 26 26 26
0 2 2 2 2 2 2 2 1 1 1 1 2 2 2 2 2 2 2 2 3 4 4 3 3 3 3 2 3 5 5 6 7 7 8 9 11 13 17 21 24 25 26
2 3 3 3 2 2 2 2 1 2 2 2 3 2 2 2 2 2 2 1 2 3 3 4 3 3 3 3 4 5 3 6 7 7 8 9 10 11 12 14 18 21 23
3 3 3 2 2 3 3 3 2 3 3 3 3 3 3 3 2 2 2 3 2 2 4 4 3 3 3 3 5 3 4 6 7 8 8 9 10 10 12 13 15 17 19
3 3 2 2 3 3 3 3 3 4 4 4 3 4 3 3 3 3 2 2 3 3 3 3 3 4 4 4 5 4 5 9 9 10 10 10 11 11 12 13 14 16 18
4 4 3 3 4 4 4 4 4 5 5 5 4 4 5 4 3 3 3 2 2 3 4 4 3 3 4 5 5 4 5 5 5 11 12 12 12 12 12 13 15 16 17
5 5 4 4 4 4 4 4 5 5 5 5 5 5 5 4 4 4 3 4 4 4 4 5 3 3 4 5 5 5 5 5 5 9 13 13 12 12 13 14 15 15 16
5 5 4 5 5 5 5 5 5 5 5 6 6 6 6 5 5 4 4 4 4 4 3 4 4 3 3 3 4 4 5 4 5 7 10 12 12 13 13 14 15 15 16
6 5 5 5 5 5 5 5 5 5 5 5 5 5 6 6 6 6 5 6 5 4 4 3 4 3 3 4 2 3 4 3 4 4 6 7 9 11 12 13 14 15 16
7 6 5 5 5 5 5 5 5 5 5 5 5 5 6 8 10 8 6 6 5 4 4 4 4 3 3 3 3 2 3 4 4 3 3 3 3 4 5 9 12 14 15
6 5 6 6 6 5 7 9 7 5 5 5 6 6 6 8 10 11 11 10 9 7 6 5 4 5 6 5 4 3 3 2 4 3 2 4 3 4 5 5 9 12 14
6 6 6 6 6 8 10 11 11 6 6 6 6 6 6 7 7 6 8 10 9 11 12 8 7 8 7 6 5 5 4 4 5 4 2 4 3 5 5 6 11 12 14
6 6 6 6 6 8 11 12 13 8 6 7 7 7 7 7 8 8 7 7 7 7 8 7 8 9 9 7 7 6 6 5 5 4 3 4 4 5 5 5 8 11 12
6 6 5 7 7 8 11 13 12 5 6 8 8 7 7 8 11 12 7 7 8 7 10 12 12 12 12 12 9 4 4 4 5 4 4 4 4 4 4 4 6 9 10
7 6 7 7 8 8 11 13 12 5 6 7 6 7 10 10 11 10 6 6 7 8 6 6 7 8 8 9 11 8 7 6 5 4 4 4 4 3 4 3 3 3 4
Wind_Direction
67 44 28 21 15 22 24 15 342 288 281 282 265 233 226 219 214 203 208 217 213 206 202 204 202 200 199 195 194 193 193 192 188 184 182 180 178 176 175 173 171 168 166
84 60 38 28 15 5 357 13 3 329 315 310 300 278 246 234 221 207 208 220 220 213 210 209 210 209 206 203 201 198 198 197 194 191 188 186 183 183 182 180 178 177 174
82 72 57 31 2 359 7 21 20 28 13 360 330 309 282 261 248 237 223 215 218 219 215 214 215 214 212 211 209 205 202 201 197 195 194 191 189 188 187 185 184 182 180
87 72 58 25 8 19 26 35 31 23 7 355 329 310 305 290 273 258 235 222 214 220 222 221 220 218 217 218 217 213 208 205 201 199 197 196 194 193 191 190 189 187 186
92 82 65 36 29 35 28 24 35 30 3 343 315 307 309 298 285 280 258 231 218 216 216 227 225 223 223 224 224 221 215 210 206 203 202 201 200 198 196 195 194 192 191
95 86 73 44 44 42 22 15 15 13 4 335 328 330 303 293 292 282 272 250 224 218 214 220 225 229 228 227 226 224 221 217 212 209 207 206 205 202 200 199 198 197 196
104 97 84 61 52 48 28 16 16 11 358 358 12 340 326 325 328 315 307 283 253 236 219 215 214 216 228 228 227 224 224 223 219 215 212 209 208 205 203 202 201 200 200
132 127 114 96 68 51 31 28 34 25 355 17 38 17 349 342 339 344 350 9 348 318 270 244 221 214 220 218 227 228 226 227 225 221 217 213 211 207 205 205 204 203 203
156 143 136 122 93 78 50 35 49 64 13 351 36 88 60 318 315 326 352 7 359 351 322 298 253 227 220 218 227 236 235 231 231 229 223 218 215 210 207 206 206 206 206
185 166 147 133 115 97 72 37 74 75 72 6 352 29 171 198 271 321 326 344 347 349 340 335 324 287 244 219 226 232 241 240 236 235 232 225 219 213 209 208 210 209 209
242 170 147 139 132 121 116 78 57 55 88 119 326 335 351 9 94 155 309 325 333 329 331 323 315 301 272 237 227 233 239 246 247 242 238 234 228 221 215 212 214 214 213
29 139 145 150 158 162 172 183 187 355 293 255 247 218 179 280 307 288 277 304 311 308 317 321 325 311 289 256 243 240 238 243 249 248 245 243 238 231 224 219 218 218 217
125 169 159 172 185 199 207 201 208 252 254 254 252 243 222 218 211 200 222 275 295 300 316 318 318 320 314 302 276 262 249 242 246 248 248 248 247 243 233 226 222 221 219
189 183 178 190 205 219 225 210 216 242 232 239 253 249 245 249 222 203 203 226 302 309 311 297 309 313 324 314 288 279 272 255 250 250 251 251 249 246 241 233 227 224 222
181 172 179 197 223 231 235 227 233 247 249 247 249 247 242 251 246 232 210 188 195 270 289 285 298 309 315 304 294 282 274 268 261 259 258 257 254 250 245 239 232 226 221
191 187 208 224 238 244 244 232 238 244 245 252 243 246 250 249 254 250 234 213 189 200 250 268 266 283 301 306 303 288 269 269 263 259 257 254 253 250 245 241 236 228 221
200 206 221 232 239 245 246 234 237 241 241 252 254 245 251 251 250 254 248 238 225 199 242 271 262 280 294 295 299 292 278 264 262 258 254 252 251 249 246 241 236 232 226
209 213 219 226 235 239 238 232 241 241 235 242 248 245 251 253 250 247 242 243 241 224 223 265 279 283 281 281 282 287 283 274 260 262 257 252 251 250 247 243 237 233 228
213 219 218 226 234 237 237 237 237 241 238 237 237 236 245 245 250 247 242 242 243 247 224 238 265 266 274 282 295 294 289 285 278 271 264 257 252 250 247 244 239 234 230
211 220 225 229 232 234 237 242 240 239 241 244 241 238 241 237 240 243 244 241 239 245 242 243 258 267 268 278 283 289 302 299 294 286 273 266 259 256 251 246 242 237 232
216 217 222 229 232 231 231 228 227 229 232 244 250 248 248 249 247 242 240 234 230 231 236 239 254 266 268 275 270 267 280 293 291 273 292 289 276 267 258 250 245 240 234
221 217 219 225 231 235 232 221 215 222 226 234 248 256 261 264 264 264 260 251 228 222 226 229 239 243 254 247 247 255 264 292 295 284 293 289 277 270 263 249 244 239 233
217 219 224 224 231 240 243 239 234 221 225 233 238 248 262 265 267 261 267 270 260 245 229 221 230 239 244 239 236 253 247 241 246 259 270 276 272 270 264 259 252 242 234
211 218 224 227 233 244 244 243 241 228 228 236 236 237 244 260 265 256 256 260 255 254 245 234 229 239 241 237 226 233 241 252 256 255 224 258 267 265 268 260 258 247 237
217 219 221 225 233 248 248 244 237 220 230 242 242 240 239 250 261 264 255 252 259 263 261 249 239 242 246 247 239 234 241 243 264 264 220 227 253 261 265 260 256 250 242
219 223 231 230 232 243 247 243 232 211 230 244 248 246 244 247 256 265 241 235 250 258 261 270 263 262 257 257 251 227 222 229 240 258 235 212 237 239 275 266 256 256 246